Temperature
16 15 15 15 15 14 14 14 14 14 14 14 14 13 13 13 13 13 13 12 12 12 12 12 12 12 12 12 12 12 12 12 12 12 11 11 11 11 11 11 11 11 11
15 15 15 15 14 14 14 14 14 14 13 13 13 13 13 13 13 13 13 12 12 12 12 12 12 12 12 12 12 12 12 12 12 11 11 11 11 11 11 11 11 11 11
15 15 14 14 14 14 14 13 14 13 13 13 13 13 13 12 12 12 12 12 12 12 12 12 12 11 11 11 11 11 11 11 11 11 11 11 11 10 11 11 10 10 10
14 14 14 14 14 14 13 13 13 13 13 13 13 13 12 12 12 12 12 12 12 12 11 11 11 11 11 11 11 11 11 11 11 11 11 10 10 10 10 10 10 10 10
14 14 14 14 13 13 13 13 13 13 13 13 12 12 12 12 12 12 12 11 11 11 11 11 11 11 11 11 11 11 11 11 10 10 10 10 10 10 10 10 10 10 10
14 14 13 13 13 13 13 13 13 13 12 12 12 12 12 12 12 12 12 11 11 11 11 11 11 11 11 11 11 11 11 10 10 10 10 10 10 10 10 10 9 9 9
14 13 13 13 12 12 12 12 12 12 12 12 12 12 12 12 12 12 12 11 11 11 11 10 10 11 11 10 11 11 11 10 10 10 10 10 10 10 9 9 9 9 9
13 13 13 12 12 12 12 12 12 12 12 12 12 12 12 12 12 12 12 11 11 10 10 10 10 10 10 10 10 10 10 10 10 10 10 10 10 9 9 9 9 9 9
13 13 13 12 12 12 12 12 11 11 11 11 11 11 11 11 11 11 11 11 10 10 10 10 10 10 10 10 10 10 10 10 10 10 10 10 10 9 9 9 9 9 9
13 12 12 12 12 12 12 11 11 11 11 11 11 11 11 11 11 11 11 10 10 10 10 10 10 10 10 10 10 9 9 9 9 9 9 9 9 9 9 9 9 8 8
12 12 12 12 12 12 11 11 11 11 10 10 10 10 10 11 11 11 11 10 10 10 10 9 9 10 10 10 9 9 9 9 9 9 9 9 9 9 9 9 9 8 8
12 11 11 11 11 11 11 11 11 10 10 10 10 10 10 10 10 10 10 10 10 9 9 9 9 10 9 9 9 9 9 9 9 8 8 8 8 8 8 8 8 8 8
11 11 11 11 11 10 10 10 10 10 10 9 9 9 9 9 9 10 9 9 9 9 9 9 9 9 9 9 8 9 9 8 8 8 8 8 8 8 8 8 8 8 8
11 10 10 10 10 10 10 10 10 9 9 9 9 9 8 8 9 9 9 9 9 9 8 8 9 8 8 8 8 8 8 8 8 7 7 7 8 8 7 7 7 7 7
10 10 10 10 9 9 9 9 9 9 9 9 9 8 8 8 8 8 8 8 8 8 8 8 7 7 7 7 7 7 7 7 7 7 7 7 7 7 7 7 7 7 7
9 9 9 9 9 9 8 8 9 9 9 8 8 8 8 8 8 8 8 8 8 8 7 7 7 7 7 7 7 7 7 6 7 6 6 6 6 6 6 6 6 6 6
9 9 9 9 8 8 8 8 8 8 8 8 8 8 7 7 7 7 7 7 7 7 7 6 6 6 6 6 6 6 6 6 6 6 6 6 6 6 6 6 6 6 6
8 8 8 8 8 8 8 7 7 7 7 7 7 7 7 7 7 7 7 6 6 6 6 6 6 6 6 6 6 6 5 5 5 5 5 5 5 5 5 5 5 5 5
8 8 8 8 8 7 7 7 7 7 6 7 6 6 6 6 6 6 6 6 5 5 5 5 5 5 5 5 5 5 5 5 5 5 5 5 5 5 5 5 5 5 5
8 8 7 7 7 7 7 7 6 6 6 6 6 6 6 6 5 5 5 5 5 5 5 5 5 5 5 4 4 4 4 4 4 4 4 4 4 4 4 4 4 4 4
7 7 7 7 7 6 6 6 6 6 5 5 6 6 6 5 5 5 5 5 4 4 4 4 4 4 4 4 4 4 4 4 4 4 4 4 4 4 4 4 4 4 4
7 7 7 6 6 6 6 5 5 5 5 5 5 5 5 5 5 4 4 4 4 4 4 4 4 4 4 4 3 3 3 3 3 3 3 3 3 3 3 3 3 3 3
6 6 6 6 6 6 5 5 5 5 4 4 4 4 4 4 4 4 4 4 4 3 3 3 3 3 3 3 3 3 3 3 3 3 3 3 3 3 3 3 3 3 3
5 5 5 5 5 5 5 5 5 4 4 4 4 4 4 4 4 4 4 3 3 3 3 3 3 3 3 3 3 3 3 2 2 2 2 2 2 2 2 2 2 2 2
5 5 5 5 5 5 4 4 4 4 4 4 3 3 3 3 3 3 3 3 3 3 3 3 3 3 2 2 2 2 2 2 2 2 2 2 2 2 2 2 2 2 2
5 5 4 4 4 4 4 4 4 3 3 3 3 3 3 3 3 3 3 3 3 3 2 2 2 2 2 2 2 2 2 2 2 2 2 2 2 2 2 1 1 1 1
Wind_Speed
7 7 6 6 6 6 6 6 6 6 5 6 6 6 6 6 6 5 6 5 6 6 6 6 6 4 4 4 4 4 4 4 4 3 1 2 2 3 2 3 3 3 2
7 7 6 6 6 7 7 7 6 6 6 6 6 6 6 6 6 6 6 6 6 6 6 6 6 4 5 5 4 5 4 5 5 4 3 2 3 3 3 3 3 3 3
6 6 7 6 6 7 6 6 6 6 6 6 6 6 6 6 6 6 6 6 6 6 6 6 6 6 6 5 5 4 4 4 4 5 4 2 3 3 3 3 4 3 4
6 7 7 7 7 6 6 5 6 6 6 6 6 6 6 6 6 6 6 6 6 6 6 6 7 7 7 6 5 5 4 5 5 5 4 3 3 3 3 3 3 3 4
6 7 7 7 6 6 5 5 5 5 6 6 6 6 6 5 5 6 6 6 6 6 6 6 6 5 4 4 4 5 5 5 5 4 4 4 4 3 4 4 4 4 4
6 7 6 6 6 6 5 5 5 5 5 5 6 6 5 5 3 3 5 6 6 6 6 6 5 6 5 5 5 5 5 6 6 5 5 5 5 5 4 4 4 4 4
6 6 6 6 6 6 5 5 5 5 5 5 6 6 6 5 5 5 5 6 6 6 6 5 4 4 5 6 6 7 7 6 7 7 7 6 6 4 5 6 6 5 4
6 6 6 7 7 6 5 5 6 5 5 5 5 6 5 5 6 6 6 7 7 6 6 5 5 5 5 5 6 6 6 6 6 7 7 6 5 5 6 6 6 5 5
5 6 6 7 7 7 6 6 6 5 5 5 5 5 5 5 5 5 5 5 6 6 5 5 5 5 3 3 6 6 5 4 4 5 4 4 3 3 4 4 4 4 4
5 5 6 6 7 7 7 7 6 5 5 5 5 5 5 4 4 5 5 4 5 5 4 4 3 3 2 4 6 5 6 5 4 4 4 5 5 4 6 6 5 5 4
4 4 5 5 6 6 6 6 6 5 5 5 4 4 4 3 4 4 3 3 4 4 3 3 3 3 3 4 5 5 4 5 5 5 4 4 4 4 4 5 4 5 5
3 4 4 4 4 4 5 5 5 5 5 5 5 4 3 3 2 3 3 2 2 3 3 3 2 3 3 4 4 2 2 4 5 4 4 4 4 4 4 4 4 5 5
3 3 3 3 3 3 4 5 5 5 5 5 4 4 3 2 2 3 3 3 2 3 2 0 0 2 3 3 3 3 3 3 4 4 4 4 4 4 4 3 4 4 4
3 3 3 3 3 3 3 4 5 5 5 5 5 4 3 3 2 2 2 3 3 3 2 2 3 4 3 2 3 3 3 2 3 4 4 3 3 3 3 3 3 3 3
3 3 3 3 3 3 4 4 5 5 4 5 5 5 5 4 3 2 2 2 2 2 2 2 2 2 3 3 3 3 3 3 3 4 4 3 3 3 3 3 3 4 4
3 3 2 2 2 3 3 2 1 2 2 2 2 2 3 2 3 4 4 3 2 3 3 3 3 3 3 3 3 3 3 3 3 3 3 3 3 3 3 3 3 4 4
4 3 2 3 3 3 3 3 3 2 3 3 3 2 2 2 4 4 4 4 4 4 3 3 3 3 3 4 4 4 4 3 3 3 3 3 4 4 3 3 3 4 4
4 3 3 3 3 3 3 3 3 3 3 3 3 4 4 4 4 4 5 4 3 4 4 4 4 4 4 4 4 4 3 3 3 3 3 3 3 3 3 4 4 4 3
3 3 3 3 3 3 3 3 3 3 3 3 2 3 4 5 6 5 6 4 4 4 4 4 4 4 4 4 4 4 4 4 4 4 4 4 4 3 4 4 4 3 4
2 2 3 3 3 3 3 3 3 3 3 3 3 2 3 3 4 4 5 5 5 5 5 5 5 5 4 4 4 4 4 5 4 4 4 4 4 4 4 4 4 4 4
2 3 4 3 3 3 3 3 3 3 3 3 3 3 3 4 4 5 5 5 5 5 5 5 4 4 5 4 4 5 6 5 5 5 5 4 4 4 4 4 4 4 4
3 3 3 4 3 4 4 4 4 4 4 4 3 3 5 5 4 4 4 5 5 5 5 5 5 4 4 5 5 5 5 6 5 5 5 4 4 4 4 4 4 4 4
3 3 3 3 3 3 4 4 4 4 4 4 4 4 4 4 4 4 4 4 4 4 4 4 5 5 5 5 5 5 6 6 6 5 5 5 5 4 4 5 5 5 5
3 3 3 3 3 4 4 4 4 4 4 4 4 4 4 4 4 4 4 4 4 4 5 5 5 6 7 6 6 6 6 7 7 6 7 6 6 5 5 5 5 6 6
3 3 3 3 3 3 4 4 4 4 4 4 4 4 5 5 5 4 4 4 5 5 6 6 5 6 8 8 7 7 6 6 7 7 7 6 6 6 6 6 6 6 6
4 4 4 3 3 3 4 4 4 4 4 4 4 5 5 5 5 5 4 4 5 5 5 5 6 7 8 8 8 8 7 7 8 8 8 6 6 6 6 6 6 6 6
Wind_Direction
212 216 217 221 226 227 228 231 234 233 228 226 223 222 223 224 221 216 227 227 233 232 226 230 233 235 227 226 234 242 244 246 257 268 247 229 231 245 230 243 246 246 226
216 219 223 222 225 228 229 231 232 231 227 226 223 225 225 226 226 224 226 226 230 231 229 229 229 222 229 229 230 237 239 240 250 258 258 253 255 249 249 249 253 254 258
217 222 225 225 228 230 230 232 231 229 226 225 227 227 226 224 224 228 229 231 230 231 230 230 229 225 227 227 229 236 242 241 243 249 254 260 257 244 246 251 253 255 256
219 223 227 228 229 230 229 229 227 227 226 226 227 227 226 223 224 229 231 230 230 232 230 232 233 232 233 232 229 231 234 236 233 239 242 244 241 243 239 244 249 248 256
220 224 228 229 228 228 225 225 225 225 228 227 227 226 223 220 226 229 229 229 228 228 228 231 235 241 259 247 241 235 230 231 230 235 239 244 238 231 238 245 252 256 256
224 226 225 224 223 225 221 221 221 223 227 225 225 222 221 220 208 219 237 228 228 226 227 226 223 220 224 227 243 248 248 241 237 234 238 241 244 240 240 243 246 252 258
226 225 220 217 217 222 220 216 218 221 222 220 220 219 222 218 192 199 221 231 233 231 226 222 223 222 220 228 216 216 229 243 252 252 247 248 249 246 242 244 244 250 263
224 223 221 218 218 218 216 217 221 221 218 219 219 220 222 217 193 202 215 227 230 230 226 226 225 225 224 235 229 226 231 230 235 245 249 253 254 253 244 245 253 259 258
232 227 223 221 219 218 214 216 219 219 219 222 220 218 220 215 189 199 216 224 230 230 228 228 226 228 203 222 232 231 233 234 221 240 271 275 289 272 262 245 243 247 257
240 240 234 226 223 219 218 216 213 213 217 217 219 219 219 218 172 182 213 222 226 226 225 222 213 242 203 210 227 232 236 240 237 227 229 230 240 223 220 233 237 245 256
245 244 239 231 227 222 219 211 205 206 210 213 212 215 215 213 183 172 200 225 223 225 223 223 212 181 198 213 240 241 251 260 245 240 239 237 236 232 225 231 239 244 249
246 242 238 232 230 222 212 206 204 202 203 205 204 206 213 211 199 178 183 229 266 229 231 231 212 155 180 202 229 253 248 251 245 239 238 237 234 233 238 244 246 247 257
238 236 239 231 225 223 211 201 201 204 207 209 206 203 204 209 191 168 182 200 243 244 240 265 142 162 196 208 207 217 225 242 245 242 244 246 247 245 239 242 246 248 257
232 229 230 224 219 215 212 207 206 209 211 210 209 206 203 199 206 201 202 200 198 219 228 185 178 187 210 224 217 216 228 241 249 251 255 256 253 247 240 235 235 236 246
231 230 230 224 219 213 211 212 212 215 217 214 212 209 202 204 197 182 198 206 216 218 221 210 207 203 212 221 225 230 234 232 240 249 255 254 250 251 252 249 240 237 244
236 235 236 227 218 212 208 204 157 204 172 196 214 222 214 195 164 171 181 181 178 181 195 215 216 216 222 228 232 234 237 241 245 249 251 248 244 247 249 250 251 245 240
239 241 237 232 220 217 213 211 201 173 161 179 183 198 213 187 176 181 180 175 173 176 205 226 230 232 234 234 236 238 242 246 248 249 251 250 247 249 248 247 245 248 253
245 236 232 226 221 217 220 219 213 205 199 199 188 186 198 196 185 186 183 181 199 202 222 230 236 237 239 243 245 246 247 247 248 249 252 252 246 246 247 249 247 248 253
241 233 229 225 215 210 213 216 213 214 212 203 197 184 187 196 192 190 188 207 217 221 225 231 239 242 239 241 244 246 246 244 247 249 253 256 254 250 250 252 251 252 258
232 222 226 221 207 206 208 213 215 217 217 210 204 212 198 200 210 208 211 220 225 228 230 237 240 244 244 243 242 240 243 245 245 248 250 250 250 249 252 254 252 248 249
237 211 212 224 215 209 212 216 215 216 219 223 219 206 201 217 226 226 225 228 232 235 236 239 244 245 245 243 242 243 247 248 246 247 247 245 243 246 250 248 247 247 251
243 230 226 226 220 214 215 217 219 220 224 231 237 214 202 226 236 236 235 239 243 245 246 243 243 247 248 241 240 245 247 251 250 248 248 247 244 246 247 244 245 245 246
240 232 228 227 223 209 216 222 222 223 226 232 238 235 226 233 239 242 244 246 247 249 247 245 248 250 253 252 248 247 249 250 250 249 247 242 238 238 242 244 243 245 244
243 238 233 227 224 222 225 228 227 228 230 234 242 246 243 242 244 243 244 249 251 251 248 245 247 250 253 258 258 253 253 256 254 250 248 245 240 239 238 242 245 246 244
235 234 231 227 224 226 230 234 236 236 237 240 246 251 250 247 248 248 247 250 254 255 255 253 251 253 254 253 256 255 256 256 257 258 251 245 240 240 242 245 246 248 245
237 233 232 228 225 227 232 237 240 244 243 243 245 250 255 254 254 254 251 251 254 256 259 256 254 257 258 257 256 257 254 250 248 249 250 244 237 237 238 240 243 244 246
Height
1522 1523 1524 1524 1525 1525 1526 1526 1527 1527 1528 1528 1529 1529 1530 1530 1530 1530 1531 1531 1532 1532 1532 1533 1533 1533 1533 1534 1534 1535 1535 1535 1535 1535 1535 1534 1533 1533 1532 1532 1532 1531 1530
1518 1519 1520 1521 1521 1522 1522 1523 1523 1524 1524 1524 1525 1525 1526 1526 1527 1527 1528 1528 1528 1529 1529 1530 1530 1530 1531 1531 1531 1532 1532 1532 1533 1532 1532 1532 1531 1531 1530 1529 1529 1529 1528
1514 1515 1516 1517 1517 1518 1518 1519 1519 1520 1520 1521 1521 1522 1522 1523 1523 1524 1524 1525 1525 1525 1526 1526 1527 1527 1528 1528 1528 1529 1529 1529 1530 1530 1529 1529 1528 1528 1527 1527 1527 1526 1526
1511 1511 1512 1513 1513 1514 1514 1515 1515 1516 1517 1517 1517 1518 1518 1519 1520 1520 1521 1521 1522 1522 1522 1523 1523 1524 1525 1525 1525 1526 1526 1526 1526 1527 1526 1526 1526 1525 1525 1524 1524 1524 1523
1507 1508 1508 1509 1509 1510 1510 1511 1511 1512 1513 1513 1514 1514 1515 1515 1516 1516 1517 1518 1518 1519 1519 1519 1519 1520 1521 1522 1522 1523 1523 1523 1523 1523 1523 1523 1523 1522 1522 1522 1522 1521 1520
1503 1504 1504 1505 1505 1506 1506 1507 1507 1508 1508 1509 1510 1510 1511 1511 1512 1512 1513 1514 1514 1515 1515 1515 1516 1516 1517 1517 1518 1519 1519 1520 1520 1520 1520 1520 1520 1520 1519 1519 1519 1518 1518
1500 1500 1501 1501 1501 1502 1502 1502 1503 1503 1504 1505 1505 1506 1507 1507 1508 1508 1509 1510 1511 1511 1512 1512 1512 1513 1513 1514 1514 1514 1515 1515 1516 1517 1517 1517 1517 1516 1516 1516 1516 1515 1515
1496 1497 1497 1497 1498 1498 1498 1499 1499 1500 1500 1501 1502 1502 1503 1503 1504 1504 1505 1506 1507 1507 1508 1509 1509 1509 1510 1510 1511 1511 1512 1512 1512 1512 1513 1513 1513 1513 1512 1513 1512 1512 1511
1493 1493 1493 1494 1494 1494 1494 1495 1496 1496 1497 1497 1498 1499 1499 1500 1500 1500 1501 1502 1503 1503 1504 1505 1505 1506 1506 1506 1507 1508 1508 1508 1508 1508 1508 1509 1508 1508 1508 1508 1508 1508 1508
1489 1489 1490 1490 1490 1490 1491 1492 1492 1493 1493 1494 1494 1495 1495 1496 1496 1496 1497 1498 1498 1499 1500 1501 1501 1501 1502 1502 1503 1504 1504 1504 1505 1505 1505 1505 1505 1504 1504 1505 1505 1505 1504
1486 1486 1486 1486 1487 1487 1487 1488 1489 1489 1490 1490 1491 1491 1491 1492 1492 1493 1493 1494 1494 1495 1496 1497 1497 1497 1498 1499 1500 1500 1500 1501 1501 1501 1501 1501 1501 1501 1500 1500 1501 1501 1501
1482 1482 1482 1482 1483 1483 1483 1484 1485 1485 1486 1487 1487 1487 1488 1488 1488 1489 1489 1490 1491 1492 1492 1493 1493 1493 1494 1495 1495 1496 1496 1497 1497 1497 1498 1497 1497 1497 1497 1496 1496 1496 1496
1479 1479 1479 1479 1479 1479 1480 1480 1481 1481 1482 1483 1483 1483 1484 1484 1485 1485 1486 1486 1487 1488 1489 1489 1489 1490 1490 1491 1491 1492 1492 1493 1493 1493 1493 1493 1493 1493 1493 1492 1492 1492 1492
1476 1475 1476 1476 1476 1476 1476 1477 1477 1478 1478 1478 1479 1480 1480 1481 1481 1482 1482 1483 1484 1485 1485 1486 1486 1486 1487 1487 1487 1488 1488 1489 1489 1489 1489 1489 1489 1489 1489 1488 1488 1488 1488
1473 1473 1472 1473 1472 1472 1472 1473 1473 1474 1474 1475 1475 1476 1477 1477 1478 1478 1479 1479 1480 1481 1481 1482 1483 1483 1483 1483 1484 1484 1484 1485 1485 1485 1485 1485 1485 1485 1484 1484 1484 1484 1484
1470 1470 1470 1469 1469 1469 1469 1469 1469 1470 1470 1471 1472 1473 1473 1474 1475 1475 1476 1476 1477 1478 1478 1479 1479 1479 1479 1480 1480 1480 1481 1481 1481 1481 1481 1481 1481 1481 1480 1480 1480 1480 1480
1467 1467 1467 1466 1466 1466 1466 1466 1466 1466 1467 1468 1468 1469 1470 1470 1471 1472 1473 1474 1474 1474 1475 1475 1475 1475 1476 1476 1476 1476 1477 1477 1477 1477 1477 1477 1477 1477 1477 1476 1476 1476 1476
1464 1464 1464 1463 1463 1463 1463 1463 1463 1463 1464 1464 1465 1466 1466 1467 1468 1469 1470 1470 1470 1470 1471 1471 1471 1471 1472 1472 1472 1473 1473 1473 1473 1473 1473 1473 1472 1473 1473 1473 1472 1472 1472
1461 1461 1461 1461 1461 1461 1461 1460 1460 1461 1461 1461 1462 1462 1463 1464 1465 1465 1466 1466 1466 1466 1467 1467 1468 1468 1468 1468 1468 1468 1468 1468 1468 1469 1468 1468 1468 1469 1469 1469 1468 1468 1468
1458 1458 1458 1458 1458 1458 1458 1458 1458 1458 1458 1458 1459 1459 1460 1461 1461 1461 1462 1462 1462 1462 1463 1463 1463 1464 1464 1464 1464 1464 1464 1464 1464 1464 1464 1464 1464 1464 1464 1464 1464 1464 1464
1454 1454 1455 1455 1455 1455 1455 1456 1455 1455 1456 1456 1456 1456 1457 1457 1457 1457 1458 1458 1458 1458 1458 1459 1459 1459 1459 1459 1459 1459 1459 1459 1459 1459 1459 1459 1459 1460 1460 1460 1460 1460 1460
1451 1451 1452 1452 1452 1452 1452 1452 1452 1453 1453 1453 1453 1453 1453 1454 1454 1453 1453 1453 1454 1454 1454 1454 1454 1454 1454 1455 1455 1455 1454 1455 1455 1454 1455 1455 1455 1455 1456 1455 1456 1456 1456
1448 1448 1448 1448 1448 1449 1449 1449 1449 1449 1450 1450 1450 1450 1450 1450 1450 1450 1450 1450 1450 1450 1450 1450 1449 1449 1450 1450 1450 1450 1450 1450 1450 1450 1450 1450 1451 1451 1451 1451 1451 1451 1451
1445 1445 1445 1445 1445 1445 1445 1446 1446 1446 1446 1446 1446 1447 1447 1447 1446 1446 1446 1446 1446 1446 1445 1445 1445 1445 1445 1445 1445 1445 1445 1445 1445 1445 1446 1446 1446 1446 1446 1447 1447 1447 1447
1441 1441 1441 1442 1442 1442 1442 1443 1443 1443 1443 1443 1443 1443 1443 1443 1443 1442 1442 1442 1442 1441 1441 1441 1440 1440 1440 1439 1439 1439 1439 1440 1440 1440 1440 1441 1441 1441 1442 1442 1442 1442 1443
1438 1438 1438 1438 1439 1439 1439 1439 1439 1439 1439 1439 1439 1439 1439 1439 1439 1438 1438 1438 1437 1437 1437 1436 1435 1435 1435 1434 1434 1434 1434 1434 1434 1435 1435 1436 1436 1436 1437 1437 1438 1438 1438